CAPE
0 0 0 0 0 0 0 0 0 0 0 0 0 0 0 0 0 0 0 0 0 0 0 0 0 0 0 0 0 0 0 0 0 0 12 149 207 297 420 526 598 662 644 633
0 0 0 0 0 0 0 0 0 0 0 0 0 0 0 0 0 0 0 0 0 0 0 0 0 0 0 0 0 0 0 0 0 0 68 211 272 268 466 603 681 713 718 677
0 0 0 0 0 0 0 0 0 0 0 0 0 0 0 0 0 0 0 0 0 0 0 0 0 0 0 0 0 0 0 0 0 0 16 103 228 294 425 608 744 791 729 696
0 0 0 0 0 0 0 0 0 0 0 0 0 0 0 0 0 0 0 0 0 0 0 0 0 0 0 0 0 0 0 0 0 0 21 76 225 330 644 696 840 861 849 839
0 0 0 0 0 0 0 0 0 0 0 0 0 0 0 0 0 0 0 0 0 0 0 0 0 0 0 0 0 0 0 0 29 50 176 305 414 482 642 739 941 1001 906 831
0 0 0 0 0 0 0 0 0 0 0 0 0 0 0 0 0 0 0 0 0 0 0 0 0 0 0 0 0 0 0 79 166 257 330 445 525 544 677 627 592 479 417 395
0 0 0 0 0 0 0 0 0 0 0 0 0 0 0 0 0 0 0 0 0 0 0 0 0 0 0 0 0 0 61 211 318 356 418 515 528 527 522 407 367 324 315 338
0 0 2 8 0 0 0 0 0 0 0 0 0 0 0 0 0 0 0 0 0 0 0 0 0 0 0 0 0 33 338 470 479 429 412 384 411 434 439 403 382 339 387 421
7 8 0 23 1 0 0 0 0 0 0 0 0 0 0 0 0 0 0 0 0 0 0 0 0 0 0 0 14 365 645 677 609 490 411 425 367 294 259 257 326 301 311 304
4 7 2 0 14 6 0 0 0 0 0 0 0 0 0 0 0 0 0 0 0 0 0 0 0 0 0 23 383 693 748 682 527 426 304 173 183 223 193 171 143 165 197 167
3 1 4 0 0 3 24 1 5 0 0 0 0 0 0 0 0 0 0 0 0 0 0 0 0 0 62 345 675 785 629 433 337 242 198 184 135 105 128 172 180 208 217 156
0 0 3 0 1 0 0 0 0 8 0 0 0 0 0 0 0 0 0 0 0 0 0 0 9 49 223 556 733 687 469 300 215 164 142 108 65 58 54 68 130 170 240 290
1 5 0 0 19 5 1 0 0 0 0 0 0 0 0 0 0 0 0 0 0 0 0 0 106 153 263 559 649 487 325 211 160 138 100 28 0 28 57 106 183 177 175 193
18 7 1 1 0 0 0 0 0 0 0 0 0 0 0 0 0 0 0 0 0 0 0 18 83 265 319 552 456 328 208 141 92 14 0 0 0 31 78 174 208 181 150 100
9 5 3 0 0 0 0 0 0 0 0 0 0 0 0 0 0 0 0 0 0 0 0 1 112 382 468 551 435 251 126 67 1 0 0 15 12 30 73 138 170 191 95 34
8 3 3 0 0 0 0 0 0 0 0 0 0 0 0 0 0 0 0 0 0 0 0 0 328 455 515 544 467 265 111 11 0 0 20 1 20 49 76 103 108 184 155 31
3 7 2 0 0 3 0 0 0 0 0 0 0 0 0 0 0 0 0 0 0 0 0 6 317 601 700 561 441 291 128 0 0 10 13 5 33 56 88 129 125 170 87 37
3 9 11 0 0 0 0 16 5 18 5 14 15 0 0 0 0 0 0 0 0 0 0 66 386 712 822 581 446 322 73 0 0 17 2 18 25 55 94 151 161 64 70 40
1 2 0 1 0 0 0 0 0 1 0 7 2 0 0 0 0 0 0 0 0 0 0 121 482 743 841 603 464 265 30 0 0 10 15 29 11 58 91 157 118 41 37 54
1 0 0 0 0 0 0 2 3 2 0 20 17 20 2 1 0 0 0 0 0 0 4 371 583 781 786 536 372 232 7 0 0 6 42 53 7 60 96 107 61 39 35 54
0 0 0 0 0 0 0 3 2 0 0 0 19 3 3 7 0 0 0 0 0 0 9 568 669 779 723 473 396 143 2 0 0 28 78 103 48 84 102 62 40 53 32 22
0 0 0 0 0 0 1 0 0 0 1 3 10 4 2 4 3 3 0 0 0 0 219 553 698 731 620 418 475 113 14 0 2 71 96 92 94 44 37 30 49 46 32 20
1 5 0 0 0 1 1 6 0 0 2 8 1 0 4 2 4 0 0 0 0 6 330 592 682 635 389 464 572 254 16 21 26 78 165 80 67 64 50 19 48 23 20 34
1 5 2 4 6 14 10 11 8 14 10 16 2 1 2 1 2 0 0 0 3 240 496 623 574 460 365 412 521 405 55 25 40 109 185 178 115 80 80 113 7 2 17 12
1 1 8 4 7 11 20 16 8 8 6 7 0 0 5 3 0 0 0 0 128 500 537 343 439 429 343 340 348 355 18 15 56 171 157 245 230 166 123 115 17 2 29 10
0 7 19 5 16 18 9 14 6 9 9 8 0 3 2 2 0 0 0 15 429 519 351 206 226 325 224 215 204 65 5 3 78 145 151 248 232 231 146 0 0 0 0 0
CIN
-0 -0 -0 -0 -0 -0 -0 -0 -0 -0 -0 -0 -0 -0 -0 -0 -0 -0 -0 -0 -0 -0 -0 -0 -0 -0 -0 -0 -0 -0 -0 -0 -0 -0 -587 -599 -520 -657 -580 -497 -466 -415 -387 -341
-0 -0 -0 -0 -0 -0 -0 -0 -0 -0 -0 -0 -0 -0 -0 -0 -0 -0 -0 -0 -0 -0 -0 -0 -0 -0 -0 -0 -0 -0 -0 -0 -0 -0 -652 -585 -589 -663 -538 -442 -434 -389 -350 -312
-0 -0 -0 -0 -0 -0 -0 -0 -0 -0 -0 -0 -0 -0 -0 -0 -0 -0 -0 -0 -0 -0 -0 -0 -0 -0 -0 -0 -0 -0 -0 -0 -0 -19 -704 -666 -675 -619 -522 -449 -393 -338 -324 -288
-0 -0 -0 -0 -0 -0 -0 -0 -0 -0 -0 -0 -0 -0 -0 -0 -0 -0 -0 -0 -0 -0 -0 -0 -0 -0 -0 -0 -0 -0 -0 -0 -0 -0 -597 -462 -325 -304 -365 -366 -329 -287 -247 -189
-0 -0 -0 -0 -0 -2 -0 -0 -0 -0 -0 -0 -0 -0 -0 -0 -0 -0 -0 -0 -0 -0 -0 -0 -0 -0 -0 -0 -0 -0 -0 -0 -663 -685 -557 -458 -384 -397 -370 -336 -266 -219 -189 -144
-0 -0 -0 -0 -3 -4 -0 -0 -0 -0 -0 -0 -0 -0 -0 -0 -0 -0 -0 -0 -0 -0 -0 -0 -0 -0 -0 -0 -0 -0 -0 -534 -600 -590 -542 -437 -372 -369 -321 -301 -279 -281 -249 -199
-0 -0 -0 -0 -0 -0 -0 -0 -2 -0 -0 -0 -0 -0 -0 -0 -0 -0 -0 -0 -0 -0 -0 -0 -0 -0 -0 -0 -0 -0 -556 -504 -542 -522 -489 -427 -396 -350 -311 -318 -295 -274 -207 -138
-0 -0 -2 -7 -0 -0 -0 -0 -0 -0 -0 -0 -0 -0 -0 -0 -0 -0 -0 -0 -0 -0 -0 -0 -0 -0 -0 -0 -0 -601 -475 -458 -485 -469 -452 -440 -403 -348 -306 -277 -238 -190 -127 -70
-3 -6 -0 -28 -7 -0 -0 -0 -0 -0 -0 -0 -0 -0 -0 -0 -0 -0 -0 -0 -0 -0 -0 -0 -0 -0 -0 -0 -482 -472 -417 -419 -420 -424 -418 -396 -378 -355 -314 -278 -211 -156 -116 -78
-10 -3 -18 -1 -56 -35 -0 -6 -0 -0 -0 -0 -0 -0 -0 -0 -0 -0 -0 -0 -0 -0 -0 -0 -0 -0 -0 -443 -496 -400 -376 -378 -405 -406 -409 -416 -384 -324 -278 -233 -196 -159 -112 -98
-14 -1 -7 -0 -0 -3 -5 -12 -9 -1 -0 -0 -0 -0 -0 -0 -0 -0 -0 -0 -0 -0 -0 -0 -0 -0 -701 -501 -392 -355 -369 -409 -423 -425 -397 -371 -341 -299 -246 -190 -157 -113 -90 -80
-0 -0 -0 -0 -10 -0 -0 -0 -0 -6 -0 -0 -0 -0 -0 -0 -0 -0 -0 -0 -0 -0 -0 -0 -573 -664 -531 -368 -333 -333 -356 -392 -412 -401 -371 -346 -318 -301 -263 -241 -182 -128 -58 -10
-14 -0 -0 -0 -24 -57 -4 -1 -5 -0 -0 -0 -0 -0 -0 -0 -0 -0 -0 -0 -0 -0 -0 -0 -481 -499 -429 -324 -290 -325 -362 -395 -408 -387 -351 -362 -0 -297 -251 -193 -125 -96 -45 -11
-1 -0 -1 -1 -0 -0 -0 -0 -0 -0 -0 -0 -0 -0 -0 -0 -0 -0 -0 -0 -0 -0 -0 -166 -481 -383 -362 -273 -283 -311 -352 -400 -417 -214 -0 -0 -0 -268 -211 -112 -62 -51 -30 -25
-0 -0 -0 -0 -0 -0 -0 -0 -0 -0 -0 -0 -0 -0 -0 -0 -0 -0 -0 -0 -0 -0 -0 -43 -414 -316 -273 -238 -261 -302 -334 -403 -90 -0 -95 -308 -291 -264 -198 -101 -44 -19 -35 -41
-1 -0 -0 -1 -0 -0 -0 -0 -0 -0 -0 -0 -0 -0 -0 -0 -0 -0 -0 -0 -0 -0 -0 -0 -282 -273 -244 -238 -238 -289 -333 -397 -0 -31 -300 -110 -277 -222 -169 -112 -75 -9 -13 -34
-0 -0 -0 -0 -0 -1 -0 -0 -0 -0 -0 -0 -0 -0 -0 -0 -0 -0 -0 -0 -0 -0 -0 -178 -278 -222 -203 -231 -242 -268 -319 -0 -0 -328 -264 -195 -244 -180 -122 -60 -51 -30 -58 -29
-0 -0 -0 -0 -0 -0 -0 -1 -0 -3 -0 -1 -1 -0 -0 -0 -0 -0 -0 -0 -0 -0 -0 -374 -277 -213 -187 -211 -224 -239 -329 -0 -0 -259 -163 -237 -239 -167 -105 -39 -40 -99 -69 -27
-0 -0 -0 -0 -0 -0 -0 -0 -0 -0 -0 -1 -1 -0 -0 -0 -0 -0 -0 -0 -0 -0 -0 -366 -249 -208 -180 -206 -218 -248 -342 -0 -0 -224 -194 -207 -253 -157 -112 -40 -76 -99 -19 -16
-0 -0 -0 -0 -0 -0 -0 -0 -0 -0 -0 -1 -0 -0 -1 -0 -0 -0 -0 -0 -0 -0 -53 -253 -237 -208 -184 -219 -247 -242 -268 -0 -0 -192 -153 -159 -234 -145 -93 -59 -67 -71 -13 -11
-0 -0 -0 -0 -0 -0 -0 -0 -0 -0 -0 -0 -5 -0 -0 -0 -0 -0 -0 -0 -0 -0 -48 -204 -225 -208 -197 -241 -247 -259 -315 -0 -0 -148 -129 -113 -166 -112 -83 -101 -105 -82 -14 -12
-0 -0 -0 -0 -0 -0 -0 -0 -0 -0 -0 -0 -0 -0 -6 -0 -0 -0 -0 -0 -0 -0 -315 -241 -209 -199 -213 -248 -201 -262 -327 -0 -121 -122 -117 -118 -125 -134 -138 -167 -123 -90 -9 -9
-0 -0 -0 -0 -0 -0 -0 -0 -0 -0 -0 -0 -0 -0 -0 -0 -0 -0 -0 -0 -0 -343 -269 -193 -179 -209 -275 -226 -147 -199 -299 -236 -184 -129 -88 -137 -151 -125 -137 -197 -119 -91 -3 -0
-0 -2 -0 -0 -1 -0 -0 -0 -0 -0 -1 -0 -0 -0 -0 -0 -0 -0 -0 -0 -190 -236 -198 -153 -179 -247 -266 -223 -143 -126 -221 -243 -173 -118 -85 -100 -117 -124 -141 -117 -197 -11 -1 -0
-7 -4 -0 -0 -0 -1 -0 -0 -0 -0 -2 -0 -3 -0 -0 -0 -0 -0 -0 -0 -197 -154 -180 -222 -212 -212 -216 -188 -160 -143 -265 -261 -176 -110 -106 -80 -80 -101 -136 -121 -188 -81 -96 -5
-1 -1 -0 -0 -2 -0 -0 -0 -0 -0 -0 -0 -0 -0 -0 -0 -0 -0 -0 -150 -100 -88 -149 -206 -216 -165 -192 -180 -156 -218 -278 -287 -165 -139 -136 -88 -87 -96 -138 -0 -0 -0 -0 -6
Wind_Speed
31 35 46 46 43 49 44 49 56 51 42 41 47 67 61 52 56 59 61 59 56 53 49 46 44 45 44 42 40 36 35 31 20 16 11 10 11 11 12 8 5 5 6 3
35 45 44 41 42 48 51 51 45 43 35 40 48 60 55 48 52 52 54 54 55 57 54 48 48 47 48 47 46 38 32 27 18 12 11 13 11 12 10 7 6 6 3 2
43 44 37 44 47 49 50 54 50 41 34 39 43 57 56 52 52 53 55 54 54 52 48 48 49 48 45 42 39 33 30 24 16 10 9 11 12 13 9 6 7 4 2 2
36 38 40 43 47 47 54 41 46 48 46 51 34 60 51 51 55 54 52 50 53 51 49 50 50 50 46 42 35 30 26 20 14 7 8 8 11 10 10 6 6 4 4 4
32 31 32 39 41 38 48 32 36 36 45 48 51 53 61 46 53 54 50 49 48 50 52 52 50 47 45 39 35 29 20 16 12 8 8 7 8 10 8 7 4 6 5 6
26 24 28 27 28 35 33 43 43 38 40 54 49 46 62 50 51 48 42 39 40 39 39 42 43 40 37 30 24 18 15 14 10 7 7 4 5 5 5 4 5 6 7 8
17 7 20 28 30 26 32 37 45 50 51 59 39 43 57 30 29 25 21 27 29 33 32 31 32 31 29 23 18 15 12 9 5 3 2 3 4 4 4 4 5 5 7 7
25 24 7 19 28 32 35 36 45 53 50 52 38 47 42 40 36 31 27 23 24 26 27 29 30 28 25 18 15 10 6 3 0 2 3 4 4 5 5 5 6 7 7 7
24 20 7 6 23 26 30 41 37 36 33 42 40 51 48 41 32 26 24 24 25 26 28 30 30 28 21 13 9 5 0 1 4 4 4 4 5 6 6 7 7 8 8 8
23 25 16 18 21 15 25 28 38 36 40 44 39 46 40 28 32 26 22 22 25 25 27 28 26 23 16 9 3 0 4 5 6 5 4 5 6 7 7 8 8 8 8 9
26 22 23 21 12 20 22 28 33 35 38 39 40 36 29 36 19 19 20 22 23 25 26 25 21 18 13 5 1 3 5 7 6 5 5 6 7 8 9 9 9 8 9 9
24 25 27 26 23 21 23 28 27 37 44 44 37 35 15 16 19 19 22 23 24 23 24 22 19 16 10 2 2 5 7 8 7 6 6 7 7 8 9 9 9 9 9 9
24 22 26 24 15 15 21 23 27 33 36 45 48 39 26 25 28 27 26 27 27 26 24 21 18 15 9 1 6 8 9 8 8 8 7 7 8 9 9 9 10 10 10 10
24 17 25 28 26 26 29 30 30 33 42 46 53 49 48 41 36 33 31 29 29 27 24 21 18 15 6 4 8 9 9 7 8 7 7 7 8 9 9 10 10 10 10 10
1 14 17 29 33 34 37 38 37 42 44 46 47 50 51 44 38 36 34 33 32 29 27 24 20 14 1 8 8 9 10 7 7 6 7 8 9 9 10 10 10 10 10 11
15 12 15 19 19 29 36 37 39 43 46 51 51 53 47 48 44 43 39 36 34 31 29 25 21 15 6 9 9 9 10 6 7 6 8 9 9 10 10 11 11 10 10 11
12 11 10 13 14 17 31 35 39 41 43 46 52 48 45 49 44 41 39 36 35 33 30 27 25 16 6 9 9 10 9 5 6 8 9 10 10 10 11 11 11 11 11 11
11 10 10 10 10 14 10 13 24 33 39 43 48 48 44 44 42 39 39 38 37 34 30 28 25 13 6 10 9 8 8 6 8 10 11 11 12 11 12 12 12 12 10 8
10 9 11 11 11 12 9 17 15 26 34 33 36 37 42 41 40 42 38 30 30 31 31 29 24 10 7 9 8 10 9 8 11 11 12 12 12 12 13 13 12 12 10 8
11 11 11 9 7 7 13 26 32 25 31 24 27 31 34 33 39 39 28 29 31 30 29 27 19 10 9 10 10 10 9 10 12 13 14 14 13 12 13 14 13 12 11 10
7 13 11 9 7 8 18 13 25 20 19 24 26 27 31 33 35 36 35 34 31 31 30 23 16 10 9 10 11 10 9 13 14 15 15 14 13 14 16 16 16 15 12 10
7 9 12 10 14 10 4 2 13 6 25 26 25 26 28 29 32 32 34 33 31 30 26 20 15 11 9 11 11 9 12 14 16 15 16 14 13 15 17 17 17 16 14 12
11 17 8 14 11 3 10 1 4 14 22 27 29 25 27 29 29 28 29 30 30 29 27 21 18 16 10 11 11 8 10 13 16 16 16 13 13 14 17 16 18 18 17 16
13 12 13 8 15 10 15 13 31 19 22 26 25 26 26 28 27 26 26 27 26 27 27 22 22 17 11 10 9 9 10 13 17 17 16 12 13 16 17 17 18 18 18 18
12 9 10 10 6 24 21 32 4 16 21 22 21 23 24 25 24 25 27 25 22 23 23 23 19 15 13 10 7 6 8 10 15 15 13 14 12 19 18 18 18 18 18 18
17 18 22 14 5 21 11 22 16 17 15 16 19 20 20 20 22 24 23 20 17 16 21 19 16 15 12 9 9 7 6 13 12 13 11 15 17 23 18 17 17 15 20 20
Wind_Direction
285 272 259 258 257 260 264 263 259 263 263 258 255 255 258 262 261 262 264 268 272 278 283 286 290 292 292 295 298 303 308 317 316 312 312 303 299 307 313 314 316 325 320 318
283 270 269 265 262 258 256 259 262 261 265 261 260 258 259 260 261 264 267 270 273 277 283 288 289 289 288 289 288 292 303 311 314 305 310 312 316 317 323 326 329 330 337 345
276 277 276 265 257 256 255 253 255 260 265 263 266 261 259 260 262 264 266 271 276 281 285 286 285 285 287 285 284 290 297 308 312 300 307 315 326 331 330 333 337 341 7 10
280 279 272 261 257 251 252 257 255 255 259 254 264 260 260 260 260 264 269 273 275 277 280 279 278 278 277 278 285 289 296 304 306 296 295 299 313 323 329 341 350 7 15 8
283 284 277 262 256 254 249 256 252 255 254 256 255 260 255 265 262 263 268 271 274 274 272 271 270 271 272 277 280 286 294 302 305 298 301 304 321 328 345 351 23 9 11 1
299 291 285 282 263 256 256 246 251 256 255 250 251 256 253 259 262 268 274 275 276 276 276 272 268 270 270 280 282 286 294 298 298 292 305 319 334 343 355 17 17 15 3 355
341 245 279 277 269 262 249 240 241 244 245 247 254 252 247 268 267 281 274 283 279 277 280 278 275 274 274 279 283 287 291 303 301 299 332 1 13 16 46 48 28 20 1 359
327 313 351 291 266 259 246 241 237 242 244 247 249 248 250 251 261 270 275 286 287 286 288 286 280 277 275 280 284 283 288 298 10 77 60 33 23 27 31 31 36 11 11 15
324 353 47 37 289 259 251 239 241 248 251 245 246 248 254 254 260 266 279 279 289 291 293 290 279 264 275 286 282 276 258 107 100 92 62 27 23 38 40 33 18 19 20 23
316 319 4 272 303 277 258 249 236 240 241 241 247 246 246 257 250 262 272 276 286 295 296 294 278 272 276 285 302 38 120 117 108 87 63 47 50 40 33 28 24 27 29 22
306 317 299 299 337 275 258 250 244 244 242 242 243 247 253 243 258 259 269 274 287 293 302 297 281 274 276 291 15 109 111 115 102 83 66 60 46 26 28 24 26 26 18 21
318 304 294 281 275 279 269 257 251 242 237 241 245 243 246 241 251 270 269 276 284 295 301 298 278 272 281 299 104 115 114 114 102 83 72 56 35 32 26 28 29 36 36 46
323 310 298 301 310 307 280 268 261 252 247 239 237 234 240 251 259 262 270 271 281 286 295 293 275 271 281 54 108 116 117 112 102 92 73 42 36 37 32 35 31 38 51 54
323 326 293 283 283 286 272 266 264 253 242 241 237 237 239 247 256 259 266 272 275 278 287 285 275 270 285 102 111 116 116 112 102 85 61 45 48 34 41 40 41 45 56 58
32 206 208 240 274 280 267 263 260 250 246 243 241 239 240 247 253 258 263 266 270 273 277 276 271 264 208 116 115 117 117 112 96 74 54 53 41 42 48 47 51 57 65 68
176 182 199 222 222 243 261 261 259 253 249 244 244 242 248 250 256 251 256 261 263 268 271 272 267 256 142 129 125 122 121 110 91 64 61 60 51 58 60 59 60 68 72 73
152 155 147 201 215 224 270 266 258 256 252 246 242 248 247 245 247 247 252 256 256 263 263 265 256 251 160 140 133 131 124 105 86 77 75 67 63 67 66 64 65 69 80 83
153 140 163 198 185 211 132 82 284 268 258 254 246 245 244 244 248 250 248 250 252 258 256 260 250 245 189 140 136 134 124 104 97 95 88 76 72 69 67 70 72 70 68 53
164 147 179 194 173 216 219 9 255 285 261 263 247 245 242 245 250 246 250 250 253 251 254 256 247 234 174 147 149 136 126 108 109 104 100 92 81 73 74 71 66 60 53 42
98 156 153 134 151 181 43 337 302 262 260 262 252 244 245 244 237 237 250 257 255 256 255 249 246 221 164 151 150 141 128 120 120 113 110 103 90 79 70 69 69 59 60 55
122 89 123 178 137 98 2 282 325 253 265 272 257 252 247 242 240 251 253 250 254 253 251 248 240 211 174 160 152 144 130 129 124 120 114 104 94 87 84 81 84 85 71 53
122 95 95 97 74 85 283 315 274 227 257 274 262 254 250 249 248 250 246 246 251 253 249 240 230 211 195 161 155 144 134 128 128 121 118 108 93 87 90 78 80 85 76 64
95 55 87 66 75 233 256 223 228 242 256 268 260 256 253 249 250 249 244 244 247 246 237 231 225 218 200 168 156 152 136 128 129 126 120 104 91 88 97 84 89 94 92 87
69 76 65 64 43 268 38 294 323 266 259 269 252 252 253 247 249 244 242 243 247 239 226 225 220 217 199 175 157 147 137 129 132 130 126 107 96 103 100 96 101 101 108 102
73 66 59 57 62 299 319 323 342 273 273 263 252 254 250 246 242 238 238 245 246 230 222 220 217 213 207 166 187 190 146 133 131 128 122 119 99 123 109 105 109 110 109 99
43 38 31 42 304 293 293 298 288 275 261 257 247 250 244 246 238 237 236 245 243 230 218 219 217 216 212 198 210 205 159 136 132 128 123 125 121 141 118 105 97 94 112 109